Tracking 19832 objects as of 26-Aug-2019
HD Live streaming from Space Station
objects crossing your sky now

FENGYUN 1C DEB

Track FENGYUN 1C DEB now!
10-day predictions


NORAD ID: 29871
Int'l Code: 1999-025FR
Perigee: 745.3 km
Apogee: 846.1 km
Inclination: 99.1 °
Period: 100.6 minutes
Semi major axis: 7166 km
RCS: 0.051 m2 (small)
Launch date: May 10, 1999
Source: People's Republic of China (PRC)
Launch site: Taiyaun Space Center, China (TSC)

Note: This is SATELLITE DEBRIS
aabbcc
Your satellite tracking list
Your tracking list is empty




NASA's NSSDC Master Catalog

Two Line Element Set (TLE):
1 29871U 99025FR  19237.50330560  .00000230  00000-0  10311-3 0  9990
2 29871  99.0696  70.5020 0070348 359.3614  52.5990 14.30939663657287
Source of the keplerian elements: AFSPC